Find Starlink 2346

NORAD ID: 47887 Int'l Des: 2021-021 Owner: SPXS Country: US Constellation: starlink operational
LEOCIRCULARSTARLINK_TYPE

現在のビュー

3D地球を読み込み中...

About Starlink 2346

Starlink 2346 (NORAD 47887) is a starlink constellation satellite (v1.0) launched Mar 14, 2021 by SPXS of US. It operates in LEO, CIRCULAR, STARLINK_TYPE orbit with a mass of 260.00 kg.

次回通過

Passes for default location (London). Set your location on the main map for personalized predictions.

高度履歴

Loading altitude history...

軌道要素

1 47887U 21021AD 26265.72558013 .00000747 00000-0 35843-4 0 9997
2 47887 53.1595 84.0028 0001173 95.8580 264.2555 15.31698969306255
Epoch: Sep 22, 2026 • Age: 12 hours

現在のステータス

高度 472.6 km
遠地点 / 近地点 N/A
速度 7.63 km/s
衛星直下点 34.78°N, 154.12°E
打ち上げ日 Mar 14, 2021
運用期間 5.5 years
タイプ internet

技術仕様

分類 Payload
質量 260.00 kg
乾燥質量 248.00 kg
長さ 0.20 m
スパン 9.00 m
形状 ? Box + pan
製造者 SPXS
バスタイプ Starlink
フェーズステータス In Orbit
所有者/国 SPXS/US

Most Searched